Seabreeze 1 — V3RT5 — position and weather

sailwx.info

Track history (hours):
 
Tides and Currents Weather Stations Pressure Air Temp Water Temp Dewpoint Dewpoint Depression Visibility Wind Speed Wind Dir Waves Ship Positions

Seabreeze 1

Last reported at 2014-Aug-01 02:32 UTC. Time now 2014-Aug-01 03:54 UTC.
Position N 44°26' E 035°58'.

Length 139 m; draft 3.8 m.

Type: Cargo ship. MMSI: 312411000.

Date/timePositionNaut miles runAvg speedWind from/ knotsBaromVisibWave heightAir tempDewpointWater temp
2014-Aug-01 02:32N 44°26' E 035°58'6 6.2
2014-Aug-01 01:33N 44°21' E 035°52'6 6.2
2014-Aug-01 00:34N 44°17' E 035°46'6 6.4
2014-Jul-31 23:33N 44°12' E 035°39'  
2014-Jul-27 16:33N 38°53' E 025°45'15 6.5
2014-Jul-27 14:17N 38°38' E 025°45'5 6.3
2014-Jul-27 13:33N 38°34' E 025°45'12 6.0
2014-Jul-27 11:33N 38°22' E 025°47'6 6.2
2014-Jul-27 10:33N 38°16' E 025°49'40 6.6
2014-Jul-27 04:27N 37°47' E 026°24'  
2014-Jul-23 22:33N 35°40' E 027°51'151 8.3
2014-Jul-23 04:25N 33°35' E 029°34'7 8.2
2014-Jul-23 03:33N 33°29' E 029°38'8 8.4
2014-Jul-23 02:33N 33°21' E 029°41'8 8.5
2014-Jul-23 01:33N 33°12' E 029°43'8 8.3
2014-Jul-23 00:33N 33°04' E 029°46'8 8.0
2014-Jul-22 23:33N 32°57' E 029°48'8 7.9
2014-Jul-22 22:33N 32°49' E 029°51'27 8.3
2014-Jul-22 19:20N 32°23' E 029°58'16 8.3
2014-Jul-22 17:25N 32°08' E 030°03'9 8.2
2014-Jul-22 16:23N 31°59' E 030°05'  
Track history (hours):
 
Tides and Currents Weather Stations Pressure Air Temp Water Temp Dewpoint Dewpoint Depression Visibility Wind Speed Wind Dir Waves Ship Positions

Seabreeze 1

Last reported at 2014-Aug-01 02:32 UTC. Time now 2014-Aug-01 03:54 UTC.
Position N 44°26' E 035°58'.

Length 139 m; draft 3.8 m.

Type: Cargo ship. MMSI: 312411000.

Date/timePositionNaut miles runAvg speedWind from/ knotsBaromVisibWave heightAir tempDewpointWater temp
2014-Aug-01 02:32N 44°26' E 035°58'6 6.2
2014-Aug-01 01:33N 44°21' E 035°52'6 6.2
2014-Aug-01 00:34N 44°17' E 035°46'6 6.4
2014-Jul-31 23:33N 44°12' E 035°39'  
2014-Jul-27 16:33N 38°53' E 025°45'15 6.5
2014-Jul-27 14:17N 38°38' E 025°45'5 6.3
2014-Jul-27 13:33N 38°34' E 025°45'12 6.0
2014-Jul-27 11:33N 38°22' E 025°47'6 6.2
2014-Jul-27 10:33N 38°16' E 025°49'40 6.6
2014-Jul-27 04:27N 37°47' E 026°24'  
2014-Jul-23 22:33N 35°40' E 027°51'151 8.3
2014-Jul-23 04:25N 33°35' E 029°34'7 8.2
2014-Jul-23 03:33N 33°29' E 029°38'8 8.4
2014-Jul-23 02:33N 33°21' E 029°41'8 8.5
2014-Jul-23 01:33N 33°12' E 029°43'8 8.3
2014-Jul-23 00:33N 33°04' E 029°46'8 8.0
2014-Jul-22 23:33N 32°57' E 029°48'8 7.9
2014-Jul-22 22:33N 32°49' E 029°51'27 8.3
2014-Jul-22 19:20N 32°23' E 029°58'16 8.3
2014-Jul-22 17:25N 32°08' E 030°03'9 8.2
2014-Jul-22 16:23N 31°59' E 030°05'  

Dump ship's entire track history